sat.trackr.live / text

‹ back to catalog

STARLINK-36448

NORAD 67354 · 2026-003W

PAYLOAD ACTIVE UNKNOWN

§ Identity

Operator
Country
US
Launch date
2026-01-09
Launch site
AFETR
Launch vehicle
Mass (kg)
RCS (m²)

Purposes: comms

External: N2YO · Heavens-Above · Gunter

§ Orbital elements

Epoch: 2026-05-25T01:32:26.580192Z

Period
94.27 min
Inclination
43.0007°
Eccentricity
0.0000621
Mean motion
15.27593280 rev/d
Perigee alt
482.6 km
Apogee alt
483.4 km
Semi-major
6,861.1 km
B*
2.2966e-4
RAAN
155.8088°
Arg perigee
271.4296°
Mean anomaly
88.6485°
Rev number
2,050

§ Raw data

STARLINK-364481 67354U 26003W   26145.06419653  .00006066  00000+0  22966-3 0  99932 67354  43.0007 155.8088 0000621 271.4296  88.6485 15.27593280 20504

JSON: /api/v1/satellites/67354 · /tle

For live sub-satellite position, see the globe view (requires WebGL).

§ Visibility from observer

Set your observer location to see the next 7 days of passes ≥ 10°. The values pass through the URL so the page stays shareable.

No JS? Fill the form by hand. The geolocation button needs JavaScript.